"startDT [UTC]","vpos","CH4 [ppm]","stdev(CH4) [ppm]","CO2 [ppm]","stdev(CO2) [ppm]","H2O_reported [%]","stdev(H2O_reported)","CavityPressure [torr]","CavityTemp [C]","OutletValve","CH4_dry [ppm]","CO2_dry [ppm]","DasTemp [C]","EtalonTemp [C]","WarmBoxTemp [C]","MPVPosition","T_ECpre [C]","T_EC1 [C]","T_EC2 [C]","p_inlet [hPa]","p_in [hPa]","p_out [hPa]","T_inlet [C]","RH_inlet [%]","dwpt_inlet [C]","T_vent [C]","RH_vent [%]","dwpt_vent [C]","flow_vent [l min-1]","flow_inlet [l min-1]","dwpt_sample [C]","T_room [C]"
2016-06-05 00:00:00,0.0,1.91251,0.00038,403.941,0.114,0.8370,0.0044,139.998,45.000,31783.79464,1.92867,408.117,36.571,45.070,45.000,0.00,0.09,-272.80,-272.84,-15,520,-944,25.7,19.2,0.5,25.3,20.0,0.7,5.73,1.95,-0.8,29.5
2016-06-05 00:01:00,0.0,1.91285,0.00040,403.782,0.092,0.8406,0.0073,140.001,45.000,31783.87443,1.92912,407.973,36.564,45.070,45.000,0.00,0.09,-272.78,-272.84,-16,520,-944,25.7,19.3,0.5,25.3,20.1,0.8,5.73,1.67,-0.8,29.5
2016-06-05 00:02:00,0.0,1.91261,0.00033,403.991,0.158,0.8390,0.0056,140.000,45.000,31783.49112,1.92881,408.179,36.567,45.070,45.000,0.00,0.09,-272.79,-272.85,-17,520,-944,25.7,19.3,0.6,25.3,20.0,0.7,5.73,1.81,-0.8,29.5
2016-06-05 00:03:00,0.0,1.91254,0.00031,403.825,0.235,0.8510,0.0070,139.999,45.000,31783.27680,1.92899,408.059,36.580,45.070,45.000,0.00,0.09,-272.78,-272.85,-15,520,-944,25.7,19.6,0.7,25.3,20.3,0.9,5.73,1.86,-0.8,29.5
2016-06-05 00:04:00,0.0,1.91275,0.00037,403.897,0.209,0.8564,0.0070,139.998,45.000,31782.70867,1.92929,408.181,36.603,45.069,45.000,0.00,0.09,-272.77,-272.84,-17,520,-944,25.7,19.7,0.8,25.3,20.5,1.0,5.73,1.63,-0.8,29.5
2016-06-05 00:05:00,0.0,1.91226,0.00031,404.048,0.309,0.8653,0.0035,140.000,45.000,31784.90949,1.92902,408.370,36.609,45.069,45.000,0.00,0.09,-272.79,-272.85,-16,521,-944,25.7,19.9,1.0,25.3,20.7,1.2,5.73,1.96,-0.8,29.5
2016-06-05 00:06:00,0.0,1.91229,0.00054,403.750,0.046,0.8624,0.0102,140.001,45.000,31785.11226,1.92895,408.057,36.602,45.069,45.000,0.00,0.09,-272.78,-272.85,-15,520,-944,25.7,19.7,0.9,25.4,20.7,1.2,5.73,1.64,-0.8,29.6
2016-06-05 00:07:00,0.0,1.91217,0.00039,403.791,0.116,0.8492,0.0085,140.001,45.000,31788.18599,1.92860,408.023,36.601,45.069,45.000,0.00,0.09,-272.78,-272.83,-17,520,-944,25.7,19.4,0.7,25.3,20.3,0.9,5.73,1.86,-0.7,29.6
2016-06-05 00:08:00,0.0,1.91250,0.00038,404.325,0.299,0.8368,0.0073,139.998,45.000,31787.51893,1.92869,408.496,36.610,45.069,45.000,0.00,0.09,-272.78,-272.85,-16,521,-944,25.7,19.2,0.5,25.4,20.1,0.8,5.73,1.80,-0.8,29.5
2016-06-05 00:09:00,0.0,1.91237,0.00042,404.094,0.204,0.8348,0.0048,140.001,45.000,31787.83125,1.92849,408.271,36.623,45.069,45.000,0.00,0.09,-272.80,-272.85,-15,520,-944,25.7,19.1,0.4,25.4,19.9,0.7,5.73,1.68,-0.8,29.6
2016-06-05 00:10:00,0.0,1.91269,0.00033,403.800,0.078,0.8428,0.0032,140.001,45.000,31785.31552,1.92897,408.005,36.623,45.069,45.000,0.00,0.09,-272.79,-272.84,-17,520,-944,25.7,19.3,0.6,25.4,20.1,0.8,5.73,1.95,-0.8,29.5
2016-06-05 00:11:00,0.0,1.91229,0.00048,403.891,0.100,0.8488,0.0054,140.000,45.000,31787.71891,1.92869,408.122,36.625,45.069,45.000,0.00,0.09,-272.76,-272.84,-15,521,-944,25.7,19.5,0.7,25.4,20.2,0.9,5.73,1.61,-0.8,29.6
2016-06-05 00:12:00,0.0,1.91232,0.00052,403.814,0.083,0.8494,0.0104,140.000,45.000,31787.19112,1.92877,408.058,36.625,45.069,45.000,0.00,0.09,-272.79,-272.85,-16,521,-944,25.7,19.4,0.7,25.4,20.3,1.0,5.73,1.92,-0.8,29.6
2016-06-05 00:13:00,0.0,1.91232,0.00028,403.775,0.036,0.8331,0.0035,140.000,45.000,31789.02280,1.92840,407.928,36.623,45.069,45.000,0.00,0.09,-272.78,-272.85,-17,521,-944,25.7,19.0,0.4,25.4,19.9,0.7,5.73,1.72,-0.7,29.5
2016-06-05 00:14:00,0.0,1.91233,0.00041,403.799,0.048,0.8315,0.0025,140.001,45.000,31787.59458,1.92841,407.947,36.624,45.069,45.000,0.00,0.09,-272.79,-272.85,-15,521,-944,25.7,19.0,0.4,25.4,19.8,0.7,5.73,1.75,-0.7,29.6
2016-06-05 00:15:00,0.0,1.91255,0.00041,403.799,0.064,0.8155,0.0111,139.997,45.000,31787.05658,1.92828,407.864,36.620,45.069,45.000,0.00,0.09,-272.79,-272.84,-16,520,-944,25.7,18.6,0.0,25.4,19.6,0.5,5.73,1.91,-0.7,29.5
2016-06-05 00:16:00,0.0,1.91289,0.00036,403.807,0.054,0.8182,0.0090,140.002,45.000,31787.00674,1.92868,407.884,36.624,45.069,45.000,0.00,0.09,-272.79,-272.85,-17,521,-944,25.8,18.7,0.2,25.4,19.4,0.4,5.73,1.61,-0.7,29.6
2016-06-05 00:17:00,0.0,1.91283,0.00033,403.887,0.049,0.8235,0.0057,139.998,45.000,31786.89833,1.92873,407.991,36.625,45.069,45.000,0.00,0.09,-272.79,-272.84,-15,521,-944,25.8,18.8,0.2,25.4,19.6,0.5,5.73,1.95,-0.7,29.6
2016-06-05 00:18:00,0.0,1.91321,0.00047,403.881,0.050,0.8034,0.0099,140.000,45.000,31788.39213,1.92875,407.886,36.608,45.069,45.000,0.00,0.09,-272.78,-272.85,-16,520,-944,25.8,18.3,-0.1,25.4,19.3,0.3,5.73,1.68,-0.7,29.5
2016-06-05 00:19:00,0.0,1.91345,0.00044,403.908,0.056,0.7998,0.0071,139.998,45.000,31787.11047,1.92886,407.892,36.599,45.069,45.000,0.00,0.09,-272.77,-272.85,-16,521,-944,25.8,18.2,-0.2,25.4,19.0,0.1,5.73,1.79,-0.7,29.5
2016-06-05 00:20:00,0.0,1.91296,0.00041,403.841,0.047,0.8108,0.0063,139.997,45.000,31788.06287,1.92864,407.881,36.604,45.069,45.000,0.00,0.09,-272.79,-272.86,-15,521,-944,25.8,18.4,-0.0,25.4,19.2,0.2,5.73,1.87,-0.7,29.5
2016-06-05 00:21:00,0.0,1.91277,0.00033,403.900,0.037,0.8012,0.0033,139.999,45.000,31789.52464,1.92821,407.891,36.600,45.069,45.000,0.00,0.09,-272.75,-272.85,-17,521,-944,25.8,18.2,-0.2,25.4,19.1,0.1,5.73,1.63,-0.7,29.5
2016-06-05 00:22:00,0.0,1.91293,0.00039,403.919,0.031,0.8058,0.0072,140.002,45.000,31787.96490,1.92853,407.934,36.611,45.069,45.000,0.00,0.09,-272.79,-272.85,-16,521,-944,25.8,18.4,-0.1,25.4,19.1,0.2,5.73,1.96,-0.7,29.6
2016-06-05 00:23:00,0.0,1.91269,0.00052,403.860,0.042,0.8191,0.0064,139.998,45.000,31785.95869,1.92849,407.943,36.590,45.069,45.000,0.00,0.09,-272.78,-272.83,-15,521,-944,25.8,18.7,0.2,25.4,19.4,0.4,5.73,1.64,-0.7,29.5
2016-06-05 00:24:00,0.0,1.91242,0.00039,403.869,0.045,0.8169,0.0100,140.001,45.000,31786.42643,1.92822,407.939,36.590,45.070,45.000,0.00,0.09,-272.80,-272.84,-17,521,-944,25.8,18.6,0.1,25.4,19.3,0.3,5.73,1.85,-0.7,29.5
2016-06-05 00:25:00,0.0,1.91233,0.00036,403.887,0.037,0.8129,0.0035,139.999,45.000,31786.83199,1.92803,407.940,36.592,45.070,45.000,0.00,0.09,-272.79,-272.85,-16,521,-944,25.8,18.6,0.1,25.4,19.4,0.3,5.73,1.82,-0.7,29.5
2016-06-05 00:26:00,0.0,1.91192,0.00031,403.882,0.040,0.8155,0.0080,140.000,45.000,31787.65546,1.92766,407.946,36.593,45.069,45.000,0.00,0.09,-272.79,-272.85,-15,521,-944,25.8,18.6,0.1,25.4,19.3,0.3,5.73,1.66,-0.7,29.6
2016-06-05 00:27:00,0.0,1.91195,0.00045,403.846,0.038,0.8144,0.0062,139.999,45.000,31786.28709,1.92767,407.906,36.588,45.069,45.000,0.00,0.09,-272.79,-272.86,-17,521,-944,25.8,18.5,0.1,25.4,19.4,0.3,5.73,1.95,-0.7,29.6
2016-06-05 00:28:00,0.0,1.91161,0.00041,403.867,0.038,0.8103,0.0038,140.000,45.000,31787.64694,1.92729,407.905,36.600,45.069,45.000,0.00,0.09,-272.76,-272.86,-16,521,-944,25.8,18.4,-0.0,25.4,19.2,0.2,5.73,1.62,-0.7,29.6
2016-06-05 00:29:00,0.0,1.91109,0.00044,403.877,0.051,0.8130,0.0064,140.000,45.000,31788.06737,1.92678,407.928,36.624,45.069,45.000,0.00,0.09,-272.78,-272.83,-16,521,-944,25.8,18.5,0.0,25.4,19.3,0.3,5.73,1.90,-0.7,29.6
2016-06-05 00:30:00,0.0,1.91119,0.00036,403.931,0.036,0.8036,0.0055,140.002,45.000,31787.26713,1.92670,407.936,36.625,45.069,45.000,0.00,0.09,-272.80,-272.84,-17,521,-944,25.8,18.2,-0.2,25.4,19.1,0.1,5.73,1.76,-0.7,29.6
2016-06-05 00:31:00,0.0,1.91086,0.00037,403.908,0.049,0.8031,0.0071,139.996,45.000,31787.81271,1.92638,407.910,36.628,45.069,45.000,0.00,0.09,-272.77,-272.79,-15,521,-944,25.8,18.3,-0.1,25.4,19.0,0.1,5.73,1.71,-0.7,29.5
2016-06-05 00:32:00,0.0,1.91072,0.00038,403.865,0.041,0.8115,0.0072,140.002,45.000,31789.46480,1.92639,407.909,36.625,45.069,45.000,0.00,0.09,-272.78,-272.86,-16,521,-944,25.8,18.5,0.0,25.4,19.2,0.3,5.73,1.93,-0.7,29.5
2016-06-05 00:33:00,0.0,1.91004,0.00047,403.822,0.039,0.8194,0.0049,139.997,45.000,31787.78273,1.92584,407.905,36.625,45.069,45.000,0.00,0.09,-272.77,-272.86,-17,521,-944,25.8,18.7,0.1,25.4,19.4,0.4,5.73,1.60,-0.7,29.5
2016-06-05 00:34:00,0.0,1.91018,0.00041,403.907,0.052,0.8054,0.0100,139.998,45.000,31788.48541,1.92572,407.919,36.623,45.069,45.000,0.00,0.09,-272.75,-272.84,-15,521,-944,25.8,18.3,-0.1,25.4,19.2,0.2,5.73,1.93,-0.7,29.6
2016-06-05 00:35:00,0.0,1.91004,0.00036,403.920,0.035,0.8024,0.0050,139.999,45.000,31787.33677,1.92550,407.918,36.608,45.069,45.000,0.00,0.09,-272.77,-272.85,-16,521,-944,25.8,18.3,-0.1,25.4,19.0,0.1,5.73,1.71,-0.7,29.5
2016-06-05 00:36:00,0.0,1.90953,0.00047,403.873,0.079,0.8124,0.0135,139.998,45.000,31789.57439,1.92519,407.922,36.610,45.069,45.000,0.00,0.09,-272.80,-272.84,-17,521,-944,25.8,18.5,0.0,25.4,19.3,0.3,5.73,1.75,-0.7,29.6
2016-06-05 00:37:00,0.0,1.90974,0.00026,403.955,0.040,0.8021,0.0043,140.001,45.000,31790.17445,1.92521,407.953,36.585,45.069,45.000,0.00,0.09,-272.79,-272.86,-15,521,-944,25.8,18.2,-0.2,25.4,19.0,0.1,5.73,1.90,-0.7,29.6
2016-06-05 00:38:00,0.0,1.90970,0.00033,403.908,0.043,0.8051,0.0052,140.000,45.000,31789.95124,1.92522,407.917,36.583,45.070,45.000,0.00,0.09,-272.81,-272.83,-17,521,-944,25.8,18.3,-0.1,25.4,19.0,0.1,5.73,1.60,-0.7,29.5
2016-06-05 00:39:00,0.0,1.90978,0.00032,403.913,0.055,0.8061,0.0060,139.999,45.000,31791.00365,1.92530,407.931,36.580,45.070,45.000,0.00,0.09,-272.79,-272.86,-17,521,-944,25.8,18.3,-0.1,25.4,19.1,0.2,5.73,1.94,-0.7,29.5
2016-06-05 00:40:00,0.0,1.90985,0.00036,403.924,0.035,0.8038,0.0039,139.998,45.000,31790.82121,1.92537,407.930,36.574,45.070,45.000,0.00,0.09,-272.80,-272.83,-15,521,-944,25.8,18.3,-0.1,25.4,19.1,0.2,5.73,1.67,-0.7,29.6
2016-06-05 00:41:00,0.0,1.90961,0.00043,403.918,0.029,0.8068,0.0047,140.000,45.000,31790.33371,1.92515,407.939,36.608,45.070,45.000,0.00,0.09,-272.76,-272.86,-17,521,-944,25.8,18.3,-0.1,25.4,19.1,0.2,5.73,1.79,-0.7,29.6
2016-06-05 00:42:00,0.0,1.90983,0.00041,403.978,0.047,0.7990,0.0036,140.001,45.000,31790.48567,1.92522,407.959,36.603,45.070,45.000,0.00,0.09,-272.79,-272.87,-16,521,-944,25.8,18.2,-0.2,25.4,18.9,0.1,5.73,1.86,-0.7,29.6
2016-06-05 00:43:00,0.0,1.90938,0.00035,403.855,0.051,0.8162,0.0070,140.002,45.000,31790.87153,1.92513,407.923,36.610,45.070,45.000,0.00,0.09,-272.79,-272.82,-15,521,-944,25.8,18.6,0.1,25.4,19.2,0.2,5.73,1.62,-0.7,29.5
2016-06-05 00:44:00,0.0,1.90935,0.00050,403.926,0.053,0.8134,0.0046,139.998,45.000,31789.39509,1.92503,407.980,36.622,45.069,45.000,0.00,0.09,-272.74,-272.85,-17,521,-944,25.8,18.5,0.0,25.4,19.3,0.3,5.73,1.95,-0.7,29.6
2016-06-05 00:45:00,0.0,1.90973,0.00034,403.970,0.046,0.8029,0.0071,139.999,45.000,31790.61602,1.92521,407.971,36.624,45.069,45.000,0.00,0.09,-272.78,-272.86,-16,521,-944,25.8,18.2,-0.2,25.5,19.1,0.2,5.73,1.63,-0.7,29.6
2016-06-05 00:46:00,0.0,1.90962,0.00037,403.972,0.041,0.8073,0.0030,140.001,45.000,31791.04766,1.92518,407.994,36.613,45.069,45.000,0.00,0.09,-272.80,-272.86,-16,521,-944,25.8,18.3,-0.1,25.5,19.0,0.2,5.73,1.85,-0.7,29.6
2016-06-05 00:47:00,0.0,1.90955,0.00053,403.925,0.072,0.8225,0.0073,140.002,45.000,31789.54152,1.92542,408.023,36.598,45.069,45.000,0.00,0.09,-272.79,-272.83,-17,521,-944,25.8,18.7,0.2,25.5,19.3,0.4,5.73,1.80,-0.7,29.5
2016-06-05 00:48:00,0.0,1.90991,0.00030,403.989,0.057,0.8080,0.0121,140.000,45.000,31789.15267,1.92548,408.019,36.588,45.069,45.000,0.00,0.09,-272.78,-272.85,-16,521,-944,25.8,18.3,-0.1,25.5,19.3,0.3,5.73,1.66,-0.7,29.5
2016-06-05 00:49:00,0.0,1.91023,0.00045,403.964,0.053,0.7941,0.0031,140.002,45.000,31790.15408,1.92555,407.922,36.580,45.070,45.000,0.00,0.09,-272.79,-272.85,-16,521,-944,25.8,18.0,-0.3,25.5,18.8,-0.0,5.73,1.94,-0.7,29.5
2016-06-05 00:50:00,0.0,1.91015,0.00033,403.979,0.039,0.7993,0.0054,140.000,45.000,31788.79266,1.92553,407.959,36.609,45.070,45.000,0.00,0.09,-272.78,-272.83,-17,521,-944,25.8,18.1,-0.2,25.5,18.8,-0.0,5.73,1.61,-0.7,29.5
2016-06-05 00:51:00,0.0,1.90981,0.00041,404.115,0.033,0.8001,0.0074,140.002,45.000,31790.86497,1.92529,408.101,36.623,45.069,45.000,0.00,0.09,-272.77,-272.86,-15,521,-944,25.8,18.1,-0.2,25.5,18.9,0.1,5.73,1.90,-0.7,29.5
2016-06-05 00:52:00,0.0,1.90971,0.00028,404.078,0.084,0.7983,0.0037,140.000,45.000,31792.26557,1.92507,408.061,36.625,45.069,45.000,0.00,0.09,-272.78,-272.85,-16,521,-944,25.8,18.1,-0.2,25.5,18.9,0.0,5.73,1.73,-0.7,29.5
2016-06-05 00:53:00,0.0,1.90983,0.00040,403.921,0.040,0.7959,0.0033,139.996,45.000,31790.23668,1.92514,407.886,36.624,45.069,45.000,0.00,0.09,-272.79,-272.85,-17,521,-944,25.8,18.0,-0.3,25.5,18.8,-0.0,5.73,1.72,-0.7,29.6
2016-06-05 00:54:00,0.0,1.90988,0.00042,403.924,0.069,0.8022,0.0076,139.999,45.000,31791.99406,1.92534,407.918,36.624,45.069,45.000,0.00,0.09,-272.78,-272.84,-15,521,-944,25.8,18.2,-0.2,25.5,18.9,0.1,5.73,1.89,-0.7,29.5
2016-06-05 00:55:00,0.0,1.90977,0.00033,403.995,0.118,0.8055,0.0136,139.997,45.000,31790.97158,1.92530,408.009,36.625,45.069,45.000,0.00,0.09,-272.79,-272.85,-16,521,-944,25.8,18.3,-0.1,25.5,18.9,0.1,5.73,1.59,-0.7,29.5
2016-06-05 00:56:00,0.0,1.90964,0.00040,403.973,0.067,0.8147,0.0075,140.003,45.000,31791.10621,1.92536,408.037,36.627,45.069,45.000,0.00,0.09,-272.79,-272.85,-17,521,-944,25.9,18.5,0.1,25.5,19.2,0.3,5.73,1.92,-0.7,29.5
2016-06-05 00:57:00,0.0,1.90959,0.00036,403.872,0.032,0.8214,0.0048,140.001,45.000,31789.05776,1.92544,407.966,36.626,45.069,45.000,0.00,0.09,-272.78,-272.84,-15,521,-944,25.8,18.6,0.2,25.5,19.4,0.4,5.73,1.65,-0.7,29.5
2016-06-05 00:58:00,0.0,1.90975,0.00043,403.932,0.123,0.8240,0.0070,139.998,45.000,31788.15609,1.92564,408.039,36.627,45.069,45.000,0.00,0.09,-272.77,-272.83,-17,521,-944,25.9,18.7,0.2,25.4,19.4,0.5,5.73,1.81,-0.6,29.5
2016-06-05 00:59:00,0.0,1.90978,0.00032,403.955,0.085,0.8110,0.0055,139.997,45.000,31787.83356,1.92540,408.001,36.625,45.069,45.000,0.00,0.09,-272.78,-272.85,-16,521,-944,25.8,18.4,0.0,25.5,19.2,0.3,5.73,1.82,-0.7,29.5
2016-06-05 01:00:00,0.0,1.91008,0.00040,403.847,0.063,0.8092,0.0090,139.999,45.000,31789.18908,1.92568,407.881,36.631,45.069,45.000,0.00,0.09,-272.79,-272.85,-15,521,-944,25.8,18.3,-0.1,25.5,19.1,0.2,5.73,1.65,-0.7,29.5
2016-06-05 01:01:00,0.0,1.91036,0.00043,403.944,0.047,0.7968,0.0042,140.002,45.000,31789.64282,1.92573,407.912,36.626,45.069,45.000,0.00,0.09,-272.79,-272.83,-17,521,-944,25.8,18.0,-0.3,25.5,18.8,0.0,5.73,1.93,-0.7,29.5
2016-06-05 01:02:00,0.0,1.91003,0.00046,403.879,0.039,0.8016,0.0076,140.000,45.000,31789.78265,1.92548,407.874,36.625,45.070,45.000,0.00,0.09,-272.78,-272.84,-16,521,-944,25.8,18.1,-0.2,25.5,18.8,0.0,5.73,1.58,-0.6,29.5
2016-06-05 01:03:00,0.0,1.91035,0.00046,403.870,0.076,0.8038,0.0051,140.002,45.000,31789.77660,1.92583,407.874,36.626,45.069,45.000,0.00,0.09,-272.80,-272.85,-16,521,-944,25.9,18.2,-0.1,25.5,19.0,0.1,5.73,1.89,-0.6,29.5
2016-06-05 01:04:00,0.0,1.91011,0.00037,403.815,0.054,0.8064,0.0051,140.001,45.000,31790.33472,1.92568,407.832,36.632,45.070,45.000,0.00,0.09,-272.78,-272.85,-17,521,-944,25.9,18.3,-0.1,25.5,19.0,0.1,5.73,1.71,-0.6,29.5
2016-06-05 01:05:00,0.0,1.91024,0.00050,403.735,0.037,0.8066,0.0040,139.998,45.000,31790.47431,1.92577,407.755,36.633,45.069,45.000,0.00,0.09,-272.79,-272.83,-15,521,-944,25.8,18.3,-0.1,25.5,19.1,0.2,5.73,1.73,-0.6,29.5
2016-06-05 01:06:00,0.0,1.91067,0.00031,403.817,0.063,0.8014,0.0040,139.999,45.000,31790.34999,1.92613,407.809,36.644,45.069,45.000,0.00,0.09,-272.79,-272.84,-16,521,-944,25.8,18.1,-0.2,25.5,18.9,0.1,5.73,1.88,-0.6,29.5
2016-06-05 01:07:00,0.0,1.91037,0.00032,403.781,0.035,0.7957,0.0034,139.997,45.000,31790.67478,1.92573,407.745,36.647,45.069,45.000,0.00,0.09,-272.78,-272.84,-17,521,-944,25.9,18.0,-0.3,25.5,18.8,0.0,5.73,1.60,-0.6,29.5
2016-06-05 01:08:00,0.0,1.91062,0.00038,403.769,0.056,0.7961,0.0034,139.998,45.000,31791.90509,1.92596,407.732,36.663,45.069,45.000,0.00,0.09,-272.78,-272.84,-15,521,-944,25.9,18.0,-0.3,25.5,18.7,-0.0,5.73,1.94,-0.6,29.6
2016-06-05 01:09:00,0.0,1.91020,0.00030,403.811,0.055,0.8068,0.0058,139.997,45.000,31792.59112,1.92577,407.828,36.677,45.069,45.000,0.00,0.09,-272.78,-272.85,-17,521,-944,25.9,18.3,-0.1,25.5,18.9,0.1,5.73,1.64,-0.6,29.6
2016-06-05 01:10:00,0.0,1.91060,0.00029,403.896,0.042,0.8059,0.0066,140.003,45.000,31795.07467,1.92614,407.914,36.658,45.069,45.000,0.00,0.09,-272.79,-272.84,-17,521,-944,25.9,18.2,-0.1,25.5,19.0,0.2,5.73,1.81,-0.6,29.6
2016-06-05 01:11:00,0.0,1.91067,0.00039,403.871,0.104,0.7987,0.0033,139.999,45.000,31794.51473,1.92606,407.845,36.629,45.069,45.000,0.00,0.09,-272.77,-272.84,-15,521,-944,25.9,18.1,-0.2,25.5,18.8,0.1,5.73,1.82,-0.6,29.6
2016-06-05 01:12:00,0.0,1.91077,0.00030,404.050,0.096,0.7928,0.0034,139.999,45.000,31794.32664,1.92607,407.999,36.625,45.070,45.000,0.00,0.09,-272.78,-272.84,-17,521,-944,25.9,17.9,-0.3,25.5,18.7,-0.0,5.73,1.63,-0.6,29.6
2016-06-05 01:13:00,0.0,1.91100,0.00025,404.529,0.174,0.8004,0.0048,139.999,45.000,31795.18531,1.92643,408.512,36.624,45.070,45.000,0.00,0.09,-272.79,-272.85,-16,522,-944,25.9,18.1,-0.2,25.5,18.8,0.0,5.73,1.94,-0.6,29.5
2016-06-05 01:14:00,0.0,1.91082,0.00046,404.875,0.125,0.8112,0.0077,139.998,45.000,31795.55070,1.92647,408.926,36.616,45.070,45.000,0.00,0.09,-272.77,-272.85,-15,521,-944,25.9,18.4,0.0,25.5,19.0,0.2,5.73,1.60,-0.6,29.5
2016-06-05 01:15:00,0.0,1.91121,0.00038,404.866,0.089,0.8095,0.0048,140.001,45.000,31796.85948,1.92681,408.910,36.618,45.070,45.000,0.00,0.09,-272.79,-272.84,-17,521,-944,25.9,18.3,-0.0,25.5,19.1,0.3,5.73,1.85,-0.6,29.5
2016-06-05 01:16:00,0.0,1.91168,0.00039,404.833,0.126,0.7968,0.0096,140.000,45.000,31796.37190,1.92706,408.809,36.598,45.070,45.000,0.00,0.09,-272.79,-272.85,-16,521,-944,25.9,18.1,-0.2,25.5,18.8,0.0,5.73,1.78,-0.6,29.6
2016-06-05 01:17:00,0.0,1.91170,0.00039,404.600,0.151,0.8040,0.0064,140.000,45.000,31796.14667,1.92720,408.623,36.584,45.070,45.000,0.00,0.09,-272.78,-272.84,-16,521,-944,25.9,18.2,-0.1,25.5,19.0,0.2,5.73,1.67,-0.6,29.6
2016-06-05 01:18:00,0.0,1.91174,0.00026,404.476,0.102,0.8054,0.0091,139.998,45.000,31795.34463,1.92729,408.492,36.584,45.070,45.000,0.00,0.09,-272.78,-272.83,-17,521,-944,25.9,18.2,-0.1,25.5,18.9,0.1,5.73,1.94,-0.6,29.6
2016-06-05 01:19:00,0.0,1.91206,0.00054,404.640,0.144,0.8041,0.0081,140.001,45.000,31795.70255,1.92759,408.658,36.584,45.070,45.000,0.00,0.09,-272.79,-272.85,-16,521,-944,25.9,18.2,-0.1,25.5,19.0,0.2,5.73,1.60,-0.6,29.5
2016-06-05 01:20:00,0.0,1.91187,0.00042,404.519,0.115,0.8036,0.0037,139.999,45.000,31797.69116,1.92738,408.524,36.586,45.070,45.000,0.00,0.09,-272.80,-272.85,-16,521,-944,25.9,18.2,-0.1,25.5,18.9,0.1,5.73,1.90,-0.6,29.5
2016-06-05 01:21:00,0.0,1.91187,0.00031,404.363,0.139,0.8049,0.0072,139.998,45.000,31797.02653,1.92739,408.385,36.589,45.070,45.000,0.00,0.09,-272.78,-272.84,-17,521,-944,25.9,18.2,-0.1,25.5,18.9,0.1,5.73,1.73,-0.6,29.5
2016-06-05 01:22:00,0.0,1.91212,0.00042,404.068,0.127,0.8143,0.0041,140.000,45.000,31796.10447,1.92783,408.124,36.616,45.070,45.000,0.00,0.09,-272.78,-272.84,-16,522,-944,25.9,18.4,0.0,25.5,19.1,0.3,5.73,1.71,-0.6,29.5
2016-06-05 01:23:00,0.0,1.91218,0.00036,404.015,0.218,0.8088,0.0061,140.000,45.000,31798.30078,1.92782,408.057,36.624,45.070,45.000,0.00,0.09,-272.79,-272.85,-16,521,-944,25.9,18.3,-0.0,25.5,19.1,0.2,5.73,1.92,-0.6,29.6
2016-06-05 01:24:00,0.0,1.91165,0.00043,403.877,0.129,0.8182,0.0079,139.999,45.000,31800.43952,1.92748,407.955,36.624,45.069,45.000,0.00,0.09,-272.77,-272.84,-17,521,-944,25.9,18.5,0.2,25.5,19.2,0.3,5.73,1.60,-0.6,29.6
2016-06-05 01:25:00,0.0,1.91261,0.00050,403.941,0.102,0.7986,0.0092,139.998,45.000,31797.09167,1.92798,407.919,36.625,45.069,45.000,0.00,0.09,-272.78,-272.84,-15,521,-944,25.9,18.0,-0.2,25.5,18.9,0.2,5.73,1.92,-0.6,29.6
2016-06-05 01:26:00,0.0,1.91269,0.00047,403.893,0.073,0.7977,0.0033,140.001,45.000,31798.24618,1.92808,407.869,36.625,45.069,45.000,0.00,0.09,-272.78,-272.85,-16,521,-944,25.9,18.0,-0.2,25.5,18.7,0.0,5.73,1.71,-0.6,29.6
2016-06-05 01:27:00,0.0,1.91287,0.00032,403.798,0.062,0.8011,0.0038,139.999,45.000,31798.20293,1.92830,407.788,36.625,45.069,45.000,0.00,0.09,-272.79,-272.84,-17,521,-944,25.9,18.1,-0.2,25.5,18.8,0.0,5.73,1.74,-0.6,29.6
2016-06-05 01:28:00,0.0,1.91313,0.00051,403.809,0.063,0.8050,0.0035,140.003,45.000,31799.78603,1.92865,407.820,36.629,45.069,45.000,0.00,0.09,-272.78,-272.84,-15,521,-944,25.9,18.2,-0.1,25.5,18.9,0.1,5.73,1.89,-0.6,29.6
2016-06-05 01:29:00,0.0,1.91309,0.00029,403.673,0.068,0.8136,0.0145,139.997,45.000,31798.13368,1.92882,407.723,36.639,45.069,45.000,0.00,0.09,-272.78,-272.85,-16,521,-944,25.9,18.4,0.1,25.5,19.0,0.2,5.73,1.57,-0.6,29.6
2016-06-05 01:30:00,0.0,1.91325,0.00032,403.709,0.042,0.8071,0.0053,140.000,45.000,31799.53547,1.92884,407.732,36.652,45.069,45.000,0.00,0.09,-272.79,-272.85,-17,521,-944,25.9,18.2,-0.1,25.6,19.1,0.3,5.73,1.91,-0.6,29.6
2016-06-05 01:31:00,0.0,1.91338,0.00042,403.710,0.042,0.8038,0.0090,140.001,45.000,31800.54134,1.92890,407.714,36.636,45.069,45.000,0.00,0.09,-272.78,-272.84,-15,521,-944,25.9,18.1,-0.1,25.5,19.0,0.2,5.73,1.63,-0.6,29.6
2016-06-05 01:32:00,0.0,1.91347,0.00048,403.729,0.041,0.8014,0.0081,139.999,45.000,31802.14183,1.92895,407.720,36.640,45.070,45.000,0.00,0.09,-272.78,-272.84,-17,521,-945,25.9,18.1,-0.2,25.5,18.8,0.1,5.73,1.76,-0.6,29.6
2016-06-05 01:33:00,0.0,1.91401,0.00037,403.797,0.047,0.7977,0.0045,139.999,45.000,31802.17054,1.92942,407.768,36.626,45.070,45.000,0.00,0.09,-272.80,-272.85,-16,521,-944,25.9,18.0,-0.3,25.5,18.7,0.0,5.73,1.80,-0.6,29.6
2016-06-05 01:34:00,0.0,1.91353,0.00034,403.719,0.063,0.8128,0.0123,140.000,45.000,31804.61864,1.92924,407.767,36.634,45.070,45.000,0.00,0.09,-272.79,-272.85,-15,521,-945,25.9,18.4,0.0,25.6,18.9,0.2,5.73,1.58,-0.6,29.6
2016-06-05 01:35:00,0.0,1.91382,0.00041,403.717,0.056,0.8179,0.0121,140.002,45.000,31804.79098,1.92962,407.790,36.636,45.070,45.000,0.00,0.09,-272.79,-272.84,-17,521,-945,25.9,18.5,0.1,25.6,19.1,0.3,5.73,1.91,-0.6,29.6
2016-06-05 01:36:00,0.0,1.91382,0.00038,403.700,0.052,0.8149,0.0100,140.000,45.000,31806.56540,1.92956,407.762,36.645,45.070,45.000,0.00,0.09,-272.78,-272.86,-16,522,-945,25.9,18.4,0.1,25.6,19.3,0.4,5.73,1.58,-0.6,29.6
2016-06-05 01:37:00,0.0,1.91434,0.00044,403.691,0.043,0.8082,0.0047,139.999,45.000,31805.71813,1.92995,407.717,36.632,45.070,45.000,0.00,0.09,-272.79,-272.85,-15,521,-945,25.9,18.2,-0.1,25.6,19.0,0.2,5.73,1.78,-0.6,29.6
2016-06-05 01:38:00,0.0,1.91443,0.00027,403.722,0.039,0.8072,0.0030,140.002,45.000,31807.10841,1.93003,407.743,36.627,45.070,45.000,0.00,0.09,-272.77,-272.85,-17,521,-945,25.9,18.2,-0.1,25.6,18.9,0.2,5.73,1.79,-0.6,29.6
2016-06-05 01:39:00,0.0,1.91422,0.00042,403.736,0.043,0.7971,0.0056,139.998,45.000,31808.57881,1.92961,407.706,36.644,45.070,45.000,0.00,0.09,-272.78,-272.84,-16,522,-945,25.9,17.9,-0.3,25.6,18.8,0.1,5.73,1.62,-0.6,29.7
2016-06-05 01:40:00,0.0,1.91438,0.00044,403.725,0.062,0.8017,0.0104,139.999,45.000,31806.64559,1.92988,407.717,36.636,45.069,45.000,0.00,0.09,-272.79,-272.85,-16,521,-945,25.9,18.1,-0.2,25.6,18.7,0.0,5.73,1.92,-0.6,29.7
2016-06-05 01:41:00,0.0,1.91418,0.00035,403.683,0.024,0.8164,0.0018,140.000,45.000,31807.65813,1.92993,407.750,36.629,45.070,45.000,0.00,0.09,-272.78,-272.85,-17,521,-945,25.9,18.4,0.1,25.6,19.1,0.3,5.73,1.58,-0.6,29.7
2016-06-05 01:42:00,0.0,1.91424,0.00045,403.672,0.040,0.8206,0.0059,139.998,45.000,31806.10851,1.93013,407.760,36.629,45.070,45.000,0.00,0.09,-272.79,-272.84,-16,521,-945,25.9,18.5,0.2,25.6,19.2,0.4,5.73,1.80,-0.6,29.7
2016-06-05 01:43:00,0.0,1.91483,0.00034,403.700,0.028,0.8103,0.0053,140.001,45.000,31805.38549,1.93046,407.737,36.627,45.070,45.000,0.00,0.09,-272.79,-272.86,-16,521,-945,25.9,18.3,0.0,25.6,19.0,0.3,5.73,1.75,-0.6,29.6
2016-06-05 01:44:00,0.0,1.91463,0.00049,403.630,0.036,0.8204,0.0053,140.000,45.000,31805.70576,1.93050,407.718,36.628,45.070,45.000,0.00,0.09,-272.79,-272.85,-17,522,-945,25.9,18.5,0.2,25.6,19.2,0.4,5.73,1.60,-0.6,29.6
2016-06-05 01:45:00,0.0,1.91485,0.00038,403.617,0.038,0.8208,0.0078,140.001,45.000,31808.48724,1.93070,407.708,36.634,45.070,45.000,0.00,0.09,-272.78,-272.85,-16,522,-945,26.0,18.5,0.2,25.6,19.3,0.4,5.73,1.89,-0.6,29.6